Location: Brienzwiler
(46.7508°N, 8.1014°E)
Time: 08:12:40
(UTC+00:00)

USA 267 - Pass Details

Date: 05 July 2020
Orbit: 1102 x 1106 km, 123.0° (Epoch: 02 August)

Event Time Altitude Azimuth Distance (km) Brightness Sun altitude
Rises 19:48:20 0° 87° (E) 3,919 5.7 -4.2°
Reaches altitude 10° 19:50:56 10° 81° (E) 2,962 5.2 -4.5°
Maximum altitude 19:56:58 41° 14° (NNE) 1,544 4.4 -5.3°
Drops below altitude 10° 20:03:00 10° 307° (NW) 2,968 7.4 -6.1°
Sets 20:05:37 0° 300° (WNW) 3,928 8.2 -6.4°
